[[{"header":{"parameterUnit":"m.s-1","parameterCategory":1,"la1":30.2991,"la2":30.254,"lo1":-89.0895,"lo2":-89.0444,"dy":0.0017,"dx":0.0017,"nx":28,"ny":28,"refTime":"2024-04-22T09:00:00:Z","depth":0,"parameterNumber":2,"parameterNumberName":"U-component_of_WINDS"},"data":[0,0,0,0,0,0,0,0,0,0,0,0,0,0,0,0,0,0,0,0,0,0,0,0,0,0,0,0,0,0,0,0,0,0,0,0,0,0,0,0,0,0,0,0,0,0,0,0,0,0,0,0,0,0,0,0,0,0,0.1182,0.1182,0,0.1179,0.1179,0.1178,0.1176,0.1176,0.1175,0.1175,0.1172,0.1172,0.1172,0,0,0,0,0,0,0,0,0,0,0,0,0,0.1186,0.1186,0.1182,0.1182,0.1182,0.1179,0.1179,0.1178,0.1176,0.1176,0.1175,0.1175,0.1172,0.1172,0.1172,0,0,0,0,0,0,0,0,0,0,0,0,0,0.1184,0.1186,0.1182,0.118,0.118,0.1179,0.1179,0.1178,0.1176,0.1176,0.1175,0.1175,0.1172,0.1172,0.1172,0.1172,0,0,0.1171,0.1171,0,0,0,0,0,0,0,0,0.1184,0.1184,0.1181,0.1181,0.118,0.1177,0.1179,0.1176,0.1176,0.1177,0.1175,0.1175,0.1174,0.1173,0.1173,0.1172,0.1171,0.1171,0.1171,0.1171,0.1171,0,0,0,0,0,0,0,0.1184,0.1184,0.1181,0.1181,0.118,0.1179,0.1179,0.1178,0.1176,0.1177,0.1177,0.1177,0.1174,0.1173,0.1173,0.1171,0.1171,0.1171,0.1171,0.1171,0.1169,0.1169,0,0,0,0,0,0,0.1185,0.1184,0.1181,0.1181,0.1182,0.1179,0.1179,0.1178,0.1176,0.1175,0.1177,0.1176,0.1173,0.1173,0.1173,0.1172,0.1171,0.1171,0.1171,0.1169,0.1169,0.1169,0,0,0,0,0,0,0.1185,0.1185,0.1181,0.1182,0.1182,0.1179,0.1179,0.1178,0.1178,0.1175,0.1175,0.1176,0.1173,0.1173,0.1172,0.1172,0.1171,0.1171,0.1169,0.1169,0.1169,0.1171,0,0,0,0,0,0,0.1185,0.1185,0.1185,0.1182,0.1182,0.1181,0.1179,0.1178,0.1178,0.1177,0.1175,0.1175,0.1173,0.1172,0.1172,0.1171,0.1171,0.1169,0.1169,0.1169,0.1171,0.1171,0.1171,0,0,0,0,0,0.1185,0.1186,0.1185,0.1185,0.1182,0.1181,0.118,0.1178,0.1178,0.1178,0.1176,0.1175,0.1172,0.1172,0.1171,0.1171,0.1169,0.1169,0.1169,0.1171,0.1171,0.1171,0,0,0,0,0,0,0.1189,0.1186,0.1184,0.1184,0.1183,0.118,0.118,0.1179,0.1177,0.1177,0.1175,0.1174,0.1173,0.1172,0.1172,0.1171,0.117,0.117,0.1172,0.1172,0.1172,0.1172,0.1171,0,0,0,0,0,0.1189,0.1189,0.1186,0.1186,0.1185,0.1183,0.1182,0.1181,0.1179,0.1178,0.1176,0.1175,0.1173,0.1172,0.1171,0.1171,0.117,0.117,0.117,0.117,0.117,0.1169,0.1169,0.1169,0.1169,0.1169,0,0,0.1191,0.1189,0.1189,0.1187,0.1185,0.1184,0.1182,0.1181,0.118,0.1178,0.1177,0.1175,0.1173,0.1172,0.1172,0.1171,0.117,0.117,0.1171,0.117,0.1169,0.1169,0.1169,0.1169,0.1169,0.1169,0,0,0.1193,0.1192,0.1191,0.119,0.1187,0.1186,0.1186,0.1183,0.1182,0.118,0.1178,0.1177,0.1175,0.1173,0.1172,0.1172,0.1171,0.1172,0.1173,0.1172,0.1172,0.1172,0.1171,0.1171,0.1172,0.1172,0.1172,0,0.1195,0.1194,0.1191,0.119,0.1189,0.1187,0.1186,0.1184,0.1182,0.1181,0.118,0.1177,0.1175,0.1173,0.1173,0.1173,0.1172,0.1172,0.1172,0.1172,0.1172,0.1171,0.1171,0.1172,0.1172,0.1172,0.1172,0,0.1196,0.1195,0.1195,0.1192,0.1191,0.119,0.1187,0.1186,0.1184,0.1182,0.1181,0.1179,0.1176,0.1176,0.1175,0.1173,0.1173,0.1172,0.1171,0.1172,0.1171,0.1171,0.1172,0.1172,0.1172,0.1172,0,0,0.1201,0.1196,0.1196,0.1194,0.1191,0.119,0.1189,0.1186,0.1185,0.1183,0.1181,0.1179,0.1178,0.1177,0.1175,0.1174,0.1174,0.1173,0.1173,0.1173,0.1171,0.1172,0.1172,0.1173,0.1173,0.1173,0.1171,0,0.1202,0.12,0.1197,0.1195,0.1194,0.1191,0.1189,0.1187,0.1185,0.1183,0.1181,0.1179,0.1178,0.1177,0.1176,0.1174,0.1173,0.1174,0.1171,0.1171,0.1171,0.1172,0.1172,0.1171,0.1171,0.1171,0.1171,0,0.1203,0.1201,0.1199,0.1195,0.1194,0.1193,0.119,0.1189,0.1186,0.1184,0.1182,0.118,0.1178,0.1178,0.1175,0.1175,0.1174,0.1172,0.1172,0.1172,0.1171,0.1171,0.1171,0.1171,0.1171,0.1171,0.1171,0,0.1206,0.1203,0.1201,0.1199,0.1195,0.1194,0.1192,0.1189,0.1188,0.1185,0.1184,0.1181,0.1179,0.1177,0.1174,0.1174,0.1171,0.1171,0.117,0.117,0.1169,0.1169,0.1169,0.1169,0.1169,0.1169,0.1169,0,0.1208,0.1206,0.1202,0.1201,0.1199,0.1196,0.1194,0.1192,0.1189,0.1187,0.1184,0.1183,0.1179,0.1177,0.1175,0.1172,0.1171,0.117,0.1169,0.117,0.117,0.1169,0.1169,0.1169,0.1169,0.1169,0.1169,0,0.1211,0.1208,0.1205,0.1201,0.12,0.1199,0.1195,0.1193,0.1191,0.1188,0.1187,0.1184,0.1181,0.1178,0.1174,0.1172,0.1169,0.1169,0.117,0.117,0.1169,0.1169,0.1168,0.1167,0.1168,0.1168,0.1168,0,0.1212,0.121,0.1206,0.1204,0.1202,0.12,0.1198,0.1195,0.1193,0.1189,0.1187,0.1184,0.1181,0.1177,0.1174,0.117,0.1169,0.1169,0.1169,0.1169,0.1169,0.1169,0.1168,0.1169,0.1169,0.1169,0.1169,0,0.1214,0.1212,0.1209,0.1206,0.1204,0.1201,0.1198,0.1197,0.1193,0.1191,0.1187,0.1185,0.1181,0.1177,0.1173,0.1171,0.1169,0.1169,0.1169,0.1169,0.117,0.1169,0.117,0.1169,0.1169,0.1169,0.1169,0.1169,0.1215,0.1214,0.121,0.1207,0.1204,0.1201,0.1199,0.1196,0.1194,0.119,0.1188,0.1184,0.1181,0.1175,0.1173,0.117,0.117,0.1169,0.1169,0.1169,0.1169,0.1171,0.1169,0.1169,0.1169,0.1169,0.1169,0,0.1216,0.1214,0.1211,0.1207,0.1204,0.1202,0.1199,0.1197,0.1193,0.119,0.1187,0.1183,0.1179,0.1176,0.1172,0.117,0.1169,0.1169,0.1169,0.1169,0.117,0.117,0.117,0.117,0.117,0.117,0.117,0.117,0.1217,0.1214,0.1212,0.1207,0.1204,0.1201,0.1199,0.1196,0.1193,0.1188,0.1185,0.1183,0.1179,0.1175,0.1171,0.117,0.1169,0.1169,0.1168,0.1169,0.1169,0.1169,0.1169,0.1169,0.1169,0.1167,0.1167,0.1167]},{"header":{"parameterUnit":"m.s-1","parameterCategory":1,"la1":30.2991,"la2":30.254,"lo1":-89.0895,"lo2":-89.0444,"dy":0.0017,"dx":0.0017,"nx":28,"ny":28,"refTime":"2024-04-22T09:00:00:Z","depth":0,"parameterNumber":3,"parameterNumberName":"V-component_of_WINDS"},"data":[0,0,0,0,0,0,0,0,0,0,0,0,0,0,0,0,0,0,0,0,0,0,0,0,0,0,0,0,0,0,0,0,0,0,0,0,0,0,0,0,0,0,0,0,0,0,0,0,0,0,0,0,0,0,0,0,0,0,4.4686,4.4686,0,4.4767,4.4768,4.4769,4.4731,4.4729,4.4727,4.4725,4.4804,4.4807,4.4811,0,0,0,0,0,0,0,0,0,0,0,0,0,4.4492,4.4495,4.4686,4.4687,4.4688,4.4767,4.4768,4.4769,4.4732,4.4729,4.4727,4.4724,4.4802,4.4807,4.4812,0,0,0,0,0,0,0,0,0,0,0,0,0,4.4575,4.4497,4.4685,4.4679,4.4679,4.4766,4.4768,4.4769,4.4732,4.4729,4.4726,4.4723,4.4801,4.4807,4.4812,4.491,0,0,4.4831,4.4833,0,0,0,0,0,0,0,0,4.457,4.4582,4.4679,4.4679,4.468,4.4736,4.4728,4.4816,4.4733,4.4712,4.4725,4.4722,4.4783,4.479,4.4812,4.4914,4.4917,4.4831,4.4835,4.4837,4.4839,0,0,0,0,0,0,0,4.4564,4.4578,4.4717,4.468,4.4681,4.4669,4.4678,4.4745,4.4763,4.4713,4.4711,4.4721,4.4783,4.4807,4.4814,4.4918,4.4831,4.4836,4.484,4.4842,4.5099,4.5102,0,0,0,0,0,0,4.4559,4.4573,4.4715,4.472,4.4616,4.4675,4.4685,4.4721,4.4763,4.4766,4.4724,4.4719,4.4798,4.4807,4.4816,4.493,4.4837,4.4843,4.4846,4.5096,4.51,4.5103,0,0,0,0,0,0,4.4555,4.4572,4.4712,4.4646,4.4663,4.4682,4.4723,4.4724,4.4748,4.477,4.4773,4.4745,4.4796,4.4808,4.4886,4.4932,4.4846,4.4851,4.5092,4.5097,4.5101,4.516,0,0,0,0,0,0,4.455,4.4571,4.461,4.4647,4.4667,4.4782,4.4726,4.4728,4.4759,4.4753,4.4791,4.4794,4.4794,4.4878,4.4892,4.4939,4.4856,4.5088,4.5094,4.51,4.5154,4.5166,4.5177,0,0,0,0,0,4.4543,4.4623,4.4612,4.463,4.4716,4.4785,4.4796,4.4796,4.4763,4.48,4.4814,4.4793,4.4925,4.4886,4.4902,4.4951,4.5085,4.5092,4.5099,4.5149,4.5164,4.5177,0,0,0,0,0,0,4.459,4.4628,4.4616,4.4711,4.4745,4.4779,4.4827,4.4812,4.4856,4.4849,4.4845,4.4854,4.4934,4.4951,4.4906,4.5046,4.5,4.501,4.5032,4.5046,4.5057,4.505,4.4861,0,0,0,0,0,4.4612,4.4667,4.4696,4.4777,4.4795,4.4808,4.4838,4.4835,4.487,4.4883,4.4903,4.4936,4.4984,4.5017,4.5063,4.5157,4.5162,4.5198,4.521,4.5219,4.5228,4.5275,4.529,4.5127,4.5127,4.5127,0,0,4.4657,4.4684,4.4719,4.4787,4.4813,4.4867,4.482,4.4881,4.492,4.4892,4.4967,4.4982,4.5018,4.5104,4.5143,4.512,4.5274,4.5228,4.5235,4.5239,4.5284,4.5299,4.5313,4.5132,4.5131,4.513,0,0,4.4765,4.4793,4.4862,4.4889,4.4929,4.4937,4.4953,4.4989,4.4998,4.5073,4.5052,4.5098,4.5183,4.5209,4.5233,4.5349,4.5329,4.5364,4.5422,4.5468,4.5481,4.5492,4.553,4.5544,4.5373,4.5373,4.5373,0,4.4815,4.4898,4.4898,4.496,4.4989,4.4967,4.5034,4.506,4.5113,4.5132,4.5107,4.5211,4.5234,4.5323,4.5351,4.5373,4.5388,4.5358,4.548,4.5491,4.5501,4.5537,4.5552,4.5377,4.5376,4.5376,4.5375,0,4.4955,4.5013,4.5063,4.5115,4.515,4.5214,4.5222,4.5257,4.525,4.526,4.5334,4.5361,4.5411,4.5433,4.5427,4.552,4.5505,4.548,4.5433,4.552,4.5554,4.5568,4.5382,4.5381,4.5379,4.5379,0,0,4.5096,4.5146,4.5164,4.5186,4.5228,4.5271,4.5333,4.5382,4.5411,4.5447,4.5497,4.5568,4.5544,4.5572,4.5568,4.5609,4.5695,4.5579,4.5579,4.5596,4.5795,4.5811,4.5828,4.5683,4.5686,4.5688,4.5791,0,4.5205,4.5315,4.5316,4.5415,4.5466,4.5445,4.5498,4.5528,4.5539,4.5582,4.5592,4.5642,4.5609,4.5624,4.5664,4.5676,4.5734,4.5669,4.5726,4.5728,4.5715,4.5846,4.5864,4.596,4.5804,4.5807,4.5808,0,4.5347,4.5388,4.5493,4.5525,4.5546,4.5594,4.5638,4.5681,4.5713,4.5717,4.5747,4.5737,4.5796,4.5749,4.583,4.5785,4.5809,4.5818,4.5821,4.5824,4.5771,4.585,4.5991,4.6005,4.583,4.5828,4.5826,0,4.5435,4.5517,4.5589,4.5609,4.5648,4.5682,4.57,4.5729,4.5758,4.5796,4.5813,4.5858,4.5881,4.5914,4.5915,4.5882,4.5995,4.5949,4.5997,4.5997,4.602,4.6018,4.6165,4.604,4.604,4.604,4.604,0,4.5555,4.5619,4.5628,4.5673,4.5743,4.5742,4.5811,4.5825,4.5851,4.5896,4.5881,4.5923,4.5923,4.5965,4.5966,4.603,4.6042,4.6044,4.6043,4.6044,4.6043,4.6058,4.605,4.6044,4.6043,4.6042,4.6041,0,4.5664,4.5674,4.575,4.5781,4.579,4.584,4.5865,4.5906,4.5914,4.5971,4.5984,4.5997,4.6045,4.605,4.6106,4.6106,4.6183,4.6176,4.6172,4.617,4.6217,4.6211,4.6375,4.6395,4.6261,4.6262,4.6263,0,4.5739,4.5788,4.5823,4.5852,4.5872,4.592,4.5949,4.5949,4.598,4.6019,4.6054,4.6101,4.6138,4.6216,4.6228,4.627,4.6263,4.6317,4.6269,4.6267,4.6259,4.6255,4.6259,4.6326,4.6327,4.6328,4.6329,0,4.5869,4.5871,4.5914,4.5959,4.5994,4.6028,4.6061,4.6085,4.6089,4.6123,4.6173,4.6202,4.6259,4.6304,4.6345,4.636,4.6345,4.6345,4.6358,4.6358,4.6352,4.6352,4.6195,4.6341,4.6339,4.6339,4.6338,4.6338,4.5962,4.6002,4.6033,4.6081,4.6105,4.6135,4.6174,4.6187,4.6229,4.6276,4.6273,4.6327,4.6354,4.6408,4.6426,4.6467,4.6448,4.6468,4.6472,4.6476,4.6479,4.6348,4.6474,4.6474,4.6474,4.6474,4.6473,0,4.6088,4.6107,4.6151,4.6196,4.6233,4.6217,4.6251,4.6282,4.6329,4.6358,4.6394,4.6449,4.6493,4.6509,4.6551,4.658,4.6573,4.659,4.6587,4.659,4.6495,4.6478,4.6594,4.6594,4.6594,4.6594,4.6594,4.6594,4.6159,4.6226,4.6231,4.6309,4.6326,4.638,4.64,4.6426,4.6448,4.6511,4.6547,4.6558,4.658,4.6623,4.6661,4.6664,4.6679,4.6699,4.6698,4.6609,4.6597,4.6585,4.6569,4.6703,4.6703,4.6789,4.679,4.6791]}]]